| time (UTC) | temp F | wind direction | speed MPH | gust MPH | rain 1hr in | rain 24hr in | rain mn in | humidity % | barometer mb |
| 20260505153004 | 77 | 215 | 2.0 | 9.0 | 0.00 | 0.00 | 0.00 | 82 | 1008.6 |
| 20260505152504 | 77 | 180 | 4.0 | 9.0 | 0.00 | 0.00 | 0.00 | 82 | 1008.7 |
| 20260505152003 | 77 | 213 | 2.0 | 7.0 | 0.00 | 0.00 | 0.00 | 82 | 1008.7 |
| 20260505151004 | 78 | 152 | 3.0 | 7.0 | 0.00 | 0.00 | 0.00 | 82 | 1008.6 |
| 20260505140506 | 76 | 220 | 3.0 | 6.0 | 0.00 | 0.00 | 0.00 | 84 | 1008.4 |
| 20260505125005 | 74 | 151 | 3.0 | 7.0 | 0.00 | 0.00 | 0.00 | 87 | 1007.8 |
| 20260505124005 | 73 | 165 | 2.0 | 5.0 | 0.00 | 0.00 | 0.00 | 87 | 1007.8 |
| 20260505123504 | 73 | 178 | 1.0 | 5.0 | 0.00 | 0.00 | 0.00 | 87 | 1008.3 |
| 20260505123008 | 73 | 184 | 0.0 | 5.0 | 0.00 | 0.00 | 0.00 | 87 | 1008.1 |
| 20260505122504 | 73 | 166 | 4.0 | 6.0 | 0.00 | 0.00 | 0.00 | 87 | 1008.1 |
| 20260505122005 | 73 | 191 | 1.0 | 4.0 | 0.00 | 0.00 | 0.00 | 87 | 1008.2 |
| 20260505121507 | 72 | 188 | 0.0 | 4.0 | 0.00 | 0.00 | 0.00 | 87 | 1008.1 |
| 20260505121005 | 72 | 188 | 2.0 | 5.0 | 0.00 | 0.00 | 0.00 | 87 | 1008.1 |
| 20260505120506 | 72 | 188 | 2.0 | 5.0 | 0.00 | 0.00 | 0.00 | 88 | 1008.1 |
| 20260505120007 | 72 | 178 | 0.0 | 5.0 | 0.00 | 0.00 | 0.00 | 88 | 1007.9 |
| 20260505115504 | 72 | 159 | 1.0 | 6.0 | 0.00 | 0.00 | 0.00 | 88 | 1007.7 |
| 20260505115005 | 72 | 150 | 4.0 | 5.0 | 0.00 | 0.00 | 0.00 | 87 | 1007.6 |
| 20260505114506 | 72 | 196 | 0.0 | 7.0 | 0.00 | 0.00 | 0.00 | 87 | 1007.7 |
| 20260505114004 | 72 | 185 | 4.0 | 7.0 | 0.00 | 0.00 | 0.00 | 87 | 1007.9 |
| 20260505113505 | 72 | 175 | 1.0 | 8.0 | 0.00 | 0.00 | 0.00 | 87 | 1007.9 |
| 20260505112005 | 72 | 219 | 5.0 | 7.0 | 0.00 | 0.00 | 0.00 | 87 | 1007.9 |
| 20260505111504 | 72 | 165 | 4.0 | 7.0 | 0.00 | 0.00 | 0.00 | 87 | 1007.8 |
| 20260505111009 | 72 | 192 | 3.0 | 5.0 | 0.00 | 0.00 | 0.00 | 87 | 1007.7 |
| 20260505110506 | 72 | 190 | 0.0 | 5.0 | 0.00 | 0.00 | 0.00 | 87 | 1007.7 |
| 20260505102004 | 71 | 169 | 1.0 | 6.0 | 0.00 | 0.00 | 0.00 | 87 | 1007.8 |
| 20260505101504 | 71 | 168 | 1.0 | 6.0 | 0.00 | 0.00 | 0.00 | 87 | 1007.8 |
| 20260505100505 | 71 | 130 | 1.0 | 9.0 | 0.00 | 0.00 | 0.00 | 87 | 1008.0 |
| 20260505095504 | 71 | 169 | 1.0 | 4.0 | 0.00 | 0.00 | 0.00 | 87 | 1008.0 |
| 20260505095005 | 71 | 170 | 0.0 | 4.0 | 0.00 | 0.00 | 0.00 | 87 | 1007.9 |
| 20260505093504 | 71 | 169 | 0.0 | 5.0 | 0.00 | 0.00 | 0.00 | 87 | 1008.0 |
| 20260505093005 | 71 | 167 | 1.0 | 7.0 | 0.00 | 0.00 | 0.00 | 87 | 1008.0 |
| 20260505092005 | 71 | 167 | 3.0 | 6.0 | 0.00 | 0.00 | 0.00 | 87 | 1008.2 |
| 20260505091504 | 71 | 168 | 0.0 | 6.0 | 0.00 | 0.00 | 0.00 | 87 | 1008.2 |
| 20260505091010 | 71 | 165 | 1.0 | 6.0 | 0.00 | 0.00 | 0.00 | 87 | 1008.2 |
| 20260505090007 | 71 | 165 | 1.0 | 5.0 | 0.00 | 0.00 | 0.00 | 86 | 1008.1 |
| 20260505085504 | 71 | 165 | 2.0 | 6.0 | 0.00 | 0.00 | 0.00 | 86 | 1008.1 |
| 20260505085005 | 71 | 165 | 2.0 | 6.0 | 0.00 | 0.00 | 0.00 | 86 | 1008.2 |
| 20260505084505 | 71 | 154 | 0.0 | 6.0 | 0.00 | 0.00 | 0.00 | 86 | 1008.2 |
| 20260505084004 | 71 | 197 | 1.0 | 7.0 | 0.00 | 0.00 | 0.00 | 85 | 1008.2 |
| 20260505083504 | 71 | 198 | 0.0 | 7.0 | 0.00 | 0.00 | 0.00 | 85 | 1008.4 |
| 20260505083005 | 71 | 192 | 2.0 | 6.0 | 0.00 | 0.00 | 0.00 | 85 | 1008.3 |
| 20260505082505 | 71 | 187 | 1.0 | 6.0 | 0.00 | 0.00 | 0.00 | 85 | 1008.4 |
| 20260505082005 | 71 | 172 | 2.0 | 6.0 | 0.00 | 0.00 | 0.00 | 85 | 1008.5 |
| 20260505081505 | 71 | 194 | 3.0 | 5.0 | 0.00 | 0.00 | 0.00 | 85 | 1008.4 |
| 20260505081005 | 71 | 167 | 1.0 | 5.0 | 0.00 | 0.00 | 0.00 | 85 | 1008.6 |
| 20260505080507 | 71 | 173 | 2.0 | 6.0 | 0.00 | 0.00 | 0.00 | 85 | 1008.6 |
| 20260505080007 | 71 | 163 | 4.0 | 6.0 | 0.00 | 0.00 | 0.00 | 85 | 1008.5 |
| 20260505075506 | 71 | 225 | 2.0 | 8.0 | 0.00 | 0.00 | 0.00 | 85 | 1008.5 |
| 20260505075005 | 71 | 200 | 2.0 | 8.0 | 0.00 | 0.00 | 0.00 | 84 | 1008.5 |
| 20260505074509 | 71 | 180 | 2.0 | 5.0 | 0.00 | 0.00 | 0.00 | 84 | 1008.5 |
| 20260505073504 | 71 | 164 | 4.0 | 7.0 | 0.00 | 0.00 | 0.00 | 84 | 1008.6 |
| 20260505073005 | 71 | 192 | 1.0 | 6.0 | 0.00 | 0.00 | 0.00 | 84 | 1008.6 |
| 20260505072004 | 71 | 194 | 4.0 | 7.0 | 0.00 | 0.00 | 0.00 | 84 | 1008.9 |
| 20260505071504 | 71 | 136 | 1.0 | 8.0 | 0.00 | 0.00 | 0.00 | 83 | 1008.9 |
| 20260505071005 | 71 | 173 | 0.0 | 9.0 | 0.00 | 0.00 | 0.00 | 83 | 1008.9 |
| 20260505070508 | 71 | 185 | 1.0 | 9.0 | 0.00 | 0.00 | 0.00 | 83 | 1009.0 |
| 20260505070002 | 71 | 188 | 1.0 | 4.0 | 0.00 | 0.00 | 0.00 | 83 | 1008.9 |
| 20260505065504 | 71 | 155 | 1.0 | 5.0 | 0.00 | 0.00 | 0.00 | 83 | 1009.0 |
| 20260505065005 | 71 | 155 | 1.0 | 5.0 | 0.00 | 0.00 | 0.00 | 83 | 1009.2 |
| 20260505064004 | 71 | 175 | 1.0 | 9.0 | 0.00 | 0.00 | 0.00 | 82 | 1009.3 |
| 20260505063504 | 71 | 152 | 1.0 | 6.0 | 0.00 | 0.00 | 0.00 | 82 | 1009.3 |
| 20260505063008 | 71 | 175 | 4.0 | 6.0 | 0.00 | 0.00 | 0.00 | 82 | 1009.6 |
| 20260505062505 | 71 | 107 | 2.0 | 9.0 | 0.00 | 0.00 | 0.00 | 82 | 1009.5 |
| 20260505061504 | 71 | 218 | 1.0 | 10.0 | 0.00 | 0.00 | 0.00 | 82 | 1009.7 |
| 20260505061005 | 71 | 167 | 3.0 | 7.0 | 0.00 | 0.00 | 0.00 | 82 | 1009.7 |
| 20260505060504 | 71 | 165 | 4.0 | 7.0 | 0.00 | 0.00 | 0.00 | 82 | 1009.7 |
| 20260505060013 | 71 | 180 | 3.0 | 6.0 | 0.00 | 0.00 | 0.00 | 82 | 1009.5 |
| 20260505055503 | 71 | 150 | 2.0 | 6.0 | 0.00 | 0.00 | 0.00 | 81 | 1009.6 |
| 20260505055004 | 71 | 185 | 1.0 | 5.0 | 0.00 | 0.00 | 0.00 | 81 | 1009.6 |
| 20260505054005 | 71 | 171 | 1.0 | 6.0 | 0.00 | 0.00 | 0.00 | 81 | 1009.8 |
| 20260505053504 | 71 | 169 | 1.0 | 4.0 | 0.00 | 0.00 | 0.00 | 80 | 1009.8 |
| 20260505053006 | 71 | 171 | 0.0 | 7.0 | 0.00 | 0.00 | 0.00 | 80 | 1009.8 |
| 20260505052505 | 71 | 167 | 0.0 | 7.0 | 0.00 | 0.00 | 0.00 | 80 | 1009.9 |
| 20260505052006 | 72 | 214 | 3.0 | 9.0 | 0.00 | 0.00 | 0.00 | 80 | 1010.0 |
| 20260505051507 | 72 | 149 | 2.0 | 9.0 | 0.00 | 0.00 | 0.00 | 80 | 1010.1 |
| 20260505051009 | 72 | 180 | 2.0 | 7.0 | 0.00 | 0.00 | 0.00 | 79 | 1010.2 |
| 20260505050503 | 72 | 200 | 1.0 | 4.0 | 0.00 | 0.00 | 0.00 | 79 | 1010.2 |
| 20260505041505 | 73 | 129 | 2.0 | 11.0 | 0.00 | 0.00 | 0.00 | 77 | 1009.9 |
| 20260505041006 | 73 | 204 | 5.0 | 11.0 | 0.00 | 0.00 | 0.00 | 77 | 1010.0 |
| 20260505040506 | 73 | 124 | 1.0 | 9.0 | 0.00 | 0.00 | 0.00 | 77 | 1009.9 |
| 20260505035505 | 73 | 178 | 5.0 | 7.0 | 0.00 | 0.00 | 0.00 | 77 | 1010.2 |
| 20260505035009 | 73 | 131 | 1.0 | 9.0 | 0.00 | 0.00 | 0.00 | 76 | 1010.1 |
| 20260505034005 | 73 | 165 | 2.0 | 10.0 | 0.00 | 0.00 | 0.00 | 76 | 1010.1 |
| 20260505033504 | 73 | 150 | 3.0 | 7.0 | 0.00 | 0.00 | 0.00 | 76 | 1010.2 |
| 20260505033005 | 73 | 117 | 4.0 | 12.0 | 0.00 | 0.00 | 0.00 | 76 | 1010.5 |
| 20260505032506 | 73 | 142 | 1.0 | 12.0 | 0.00 | 0.00 | 0.00 | 76 | 1010.4 |
| 20260505032005 | 73 | 113 | 4.0 | 9.0 | 0.00 | 0.00 | 0.00 | 76 | 1010.4 |
| 20260505031505 | 73 | 180 | 5.0 | 9.0 | 0.00 | 0.00 | 0.00 | 76 | 1010.4 |
| 20260505031005 | 74 | 176 | 4.0 | 11.0 | 0.00 | 0.00 | 0.00 | 75 | 1010.3 |
| 20260505030506 | 74 | 136 | 4.0 | 11.0 | 0.00 | 0.00 | 0.00 | 75 | 1010.4 |
| 20260505030007 | 74 | 160 | 7.0 | 9.0 | 0.00 | 0.00 | 0.00 | 75 | 1010.3 |
| 20260505025505 | 74 | 164 | 1.0 | 10.0 | 0.00 | 0.00 | 0.00 | 75 | 1010.2 |
| 20260505025006 | 74 | 229 | 6.0 | 14.0 | 0.00 | 0.00 | 0.00 | 75 | 1010.1 |
| 20260505024508 | 74 | 173 | 10.0 | 13.0 | 0.00 | 0.00 | 0.00 | 75 | 1010.1 |
| 20260505024005 | 74 | 209 | 2.0 | 10.0 | 0.00 | 0.00 | 0.00 | 75 | 1010.1 |
| 20260505023505 | 74 | 194 | 2.0 | 9.0 | 0.00 | 0.00 | 0.00 | 75 | 1010.2 |
| 20260505023006 | 74 | 92 | 2.0 | 9.0 | 0.00 | 0.00 | 0.00 | 75 | 1010.1 |
| 20260505022506 | 74 | 162 | 8.0 | 11.0 | 0.00 | 0.00 | 0.00 | 74 | 1010.2 |
| 20260505022002 | 74 | 177 | 4.0 | 11.0 | 0.00 | 0.00 | 0.00 | 74 | 1010.2 |
| 20260505021505 | 74 | 216 | 3.0 | 9.0 | 0.00 | 0.00 | 0.00 | 74 | 1010.1 |
| 20260505021006 | 74 | 139 | 4.0 | 9.0 | 0.00 | 0.00 | 0.00 | 74 | 1010.1 |
| 20260505020007 | 74 | 185 | 4.0 | 12.0 | 0.00 | 0.00 | 0.00 | 74 | 1009.8 |
| 20260505015506 | 74 | 122 | 4.0 | 12.0 | 0.00 | 0.00 | 0.00 | 74 | 1009.6 |
| 20260505015008 | 74 | 134 | 1.0 | 7.0 | 0.00 | 0.00 | 0.00 | 74 | 1009.7 |
| 20260505014506 | 74 | 157 | 2.0 | 11.0 | 0.00 | 0.00 | 0.00 | 74 | 1009.8 |
| 20260505013507 | 74 | 146 | 2.0 | 10.0 | 0.00 | 0.00 | 0.00 | 74 | 1009.5 |
| 20260505013006 | 74 | 131 | 2.0 | 10.0 | 0.00 | 0.00 | 0.00 | 73 | 1009.6 |
| 20260505012505 | 74 | 153 | 3.0 | 10.0 | 0.00 | 0.00 | 0.00 | 73 | 1009.6 |
| 20260505012005 | 75 | 128 | 5.0 | 10.0 | 0.00 | 0.00 | 0.00 | 73 | 1009.4 |
| 20260505011005 | 75 | 151 | 4.0 | 9.0 | 0.00 | 0.00 | 0.00 | 73 | 1009.6 |
| 20260505010504 | 75 | 147 | 1.0 | 9.0 | 0.00 | 0.00 | 0.00 | 73 | 1009.5 |
| 20260505010007 | 75 | 165 | 1.0 | 7.0 | 0.00 | 0.00 | 0.00 | 72 | 1009.5 |
| 20260505005504 | 75 | 150 | 1.0 | 5.0 | 0.00 | 0.00 | 0.00 | 72 | 1009.6 |
| 20260505005006 | 76 | 149 | 3.0 | 9.0 | 0.00 | 0.00 | 0.00 | 71 | 1009.5 |
| 20260505004504 | 76 | 154 | 1.0 | 10.0 | 0.00 | 0.00 | 0.00 | 71 | 1009.4 |
| 20260505003504 | 76 | 137 | 0.0 | 6.0 | 0.00 | 0.00 | 0.00 | 70 | 1009.4 |
| 20260505003005 | 76 | 148 | 3.0 | 8.0 | 0.00 | 0.00 | 0.00 | 70 | 1009.4 |
| 20260505002504 | 76 | 143 | 1.0 | 11.0 | 0.00 | 0.00 | 0.00 | 70 | 1009.4 |
| 20260505002004 | 77 | 135 | 2.0 | 11.0 | 0.00 | 0.00 | 0.00 | 70 | 1009.5 |
| 20260505001504 | 77 | 172 | 6.0 | 10.0 | 0.00 | 0.00 | 0.00 | 70 | 1009.4 |
| 20260505001005 | 77 | 117 | 4.0 | 9.0 | 0.00 | 0.00 | 0.00 | 70 | 1009.6 |
| 20260505000504 | 77 | 121 | 3.0 | 12.0 | 0.00 | 0.00 | 0.00 | 69 | 1009.5 |
| 20260504235504 | 77 | 178 | 5.0 | 12.0 | 0.00 | 0.00 | 0.00 | 68 | 1009.7 |
| 20260504234504 | 78 | 92 | 1.0 | 12.0 | 0.00 | 0.00 | 0.00 | 67 | 1009.5 |
| 20260504234004 | 78 | 158 | 3.0 | 11.0 | 0.00 | 0.00 | 0.00 | 67 | 1009.7 |
| 20260504233507 | 78 | 144 | 4.0 | 11.0 | 0.00 | 0.00 | 0.00 | 67 | 1009.7 |
| 20260504233005 | 78 | 185 | 2.0 | 12.0 | 0.00 | 0.00 | 0.00 | 67 | 1009.7 |
| 20260504232505 | 79 | 140 | 9.0 | 12.0 | 0.00 | 0.00 | 0.00 | 66 | 1009.6 |
| 20260504232006 | 79 | 123 | 4.0 | 9.0 | 0.00 | 0.00 | 0.00 | 65 | 1009.8 |
| 20260504231504 | 79 | 139 | 1.0 | 10.0 | 0.00 | 0.00 | 0.00 | 65 | 1009.7 |
| 20260504231005 | 80 | 178 | 2.0 | 10.0 | 0.00 | 0.00 | 0.00 | 64 | 1009.8 |
| 20260504230505 | 80 | 108 | 2.0 | 9.0 | 0.00 | 0.00 | 0.00 | 63 | 1009.8 |
| 20260504230007 | 80 | 175 | 2.0 | 9.0 | 0.00 | 0.00 | 0.00 | 62 | 1010.0 |
| 20260504225005 | 80 | 267 | 1.0 | 12.0 | 0.00 | 0.00 | 0.00 | 62 | 1009.8 |
| 20260504224504 | 80 | 174 | 3.0 | 9.0 | 0.00 | 0.00 | 0.00 | 61 | 1009.8 |
| 20260504224004 | 81 | 160 | 1.0 | 9.0 | 0.00 | 0.00 | 0.00 | 60 | 1010.0 |
| 20260504223005 | 81 | 159 | 6.0 | 9.0 | 0.00 | 0.00 | 0.00 | 59 | 1010.1 |
| 20260504222506 | 81 | 174 | 5.0 | 7.0 | 0.00 | 0.00 | 0.00 | 60 | 1010.1 |
| 20260504221504 | 81 | 175 | 3.0 | 8.0 | 0.00 | 0.00 | 0.00 | 59 | 1010.4 |
| 20260504220505 | 81 | 207 | 2.0 | 9.0 | 0.00 | 0.00 | 0.00 | 58 | 1010.4 |
| 20260504220007 | 81 | 163 | 6.0 | 12.0 | 0.00 | 0.00 | 0.00 | 58 | 1010.2 |
| 20260504215504 | 81 | 85 | 5.0 | 10.0 | 0.00 | 0.00 | 0.00 | 58 | 1010.4 |
| 20260504215005 | 82 | 147 | 0.0 | 8.0 | 0.00 | 0.00 | 0.00 | 58 | 1010.3 |
| 20260504214506 | 82 | 144 | 3.0 | 10.0 | 0.00 | 0.00 | 0.00 | 57 | 1010.7 |
| 20260504213504 | 83 | 184 | 5.0 | 6.0 | 0.00 | 0.00 | 0.00 | 57 | 1010.7 |
| 20260504212505 | 82 | 167 | 3.0 | 9.0 | 0.00 | 0.00 | 0.00 | 56 | 1010.7 |
| 20260504212004 | 82 | 133 | 2.0 | 11.0 | 0.00 | 0.00 | 0.00 | 57 | 1010.9 |
| 20260504211005 | 82 | 117 | 4.0 | 10.0 | 0.00 | 0.00 | 0.00 | 57 | 1011.2 |
| 20260504210007 | 82 | 175 | 8.0 | 9.0 | 0.00 | 0.00 | 0.00 | 57 | 1011.3 |
| 20260504205504 | 83 | 195 | 2.0 | 7.0 | 0.00 | 0.00 | 0.00 | 55 | 1011.3 |
| 20260504205006 | 84 | 171 | 2.0 | 6.0 | 0.00 | 0.00 | 0.00 | 54 | 1011.4 |
| 20260504204505 | 83 | 182 | 4.0 | 7.0 | 0.00 | 0.00 | 0.00 | 56 | 1011.6 |
| 20260504204006 | 83 | 112 | 1.0 | 11.0 | 0.00 | 0.00 | 0.00 | 56 | 1011.7 |
| 20260504203009 | 82 | 233 | 2.0 | 10.0 | 0.00 | 0.00 | 0.00 | 56 | 1011.7 |
| 20260504202004 | 82 | 100 | 1.0 | 8.0 | 0.00 | 0.00 | 0.00 | 57 | 1011.9 |
| 20260504201005 | 83 | 207 | 5.0 | 11.0 | 0.00 | 0.00 | 0.00 | 55 | 1012.0 |
| 20260504200504 | 83 | 169 | 0.0 | 7.0 | 0.00 | 0.00 | 0.00 | 57 | 1012.1 |
| 20260504195505 | 83 | 182 | 2.0 | 10.0 | 0.00 | 0.00 | 0.00 | 56 | 1012.3 |
| 20260504195008 | 82 | 199 | 3.0 | 5.0 | 0.00 | 0.00 | 0.00 | 54 | 1012.4 |
| 20260504194505 | 83 | 163 | 5.0 | 8.0 | 0.00 | 0.00 | 0.00 | 56 | 1012.4 |
| 20260504194007 | 83 | 263 | 3.0 | 11.0 | 0.00 | 0.00 | 0.00 | 54 | 1012.5 |
| 20260504193503 | 83 | 182 | 6.0 | 11.0 | 0.00 | 0.00 | 0.00 | 56 | 1012.6 |
| 20260504193004 | 81 | 236 | 4.0 | 8.0 | 0.00 | 0.00 | 0.00 | 56 | 1012.6 |
| 20260504192505 | 81 | 229 | 2.0 | 6.0 | 0.00 | 0.00 | 0.00 | 56 | 1012.7 |
| 20260504192004 | 82 | 122 | 4.0 | 8.0 | 0.00 | 0.00 | 0.00 | 55 | 1012.6 |
| 20260504191506 | 82 | 227 | 3.0 | 8.0 | 0.00 | 0.00 | 0.00 | 54 | 1012.8 |
| 20260504191004 | 82 | 211 | 3.0 | 9.0 | 0.00 | 0.00 | 0.00 | 55 | 1013.1 |
| 20260504190505 | 82 | 245 | 7.0 | 9.0 | 0.00 | 0.00 | 0.00 | 57 | 1013.1 |
| 20260504185503 | 82 | 215 | 5.0 | 12.0 | 0.00 | 0.00 | 0.00 | 55 | 1013.2 |
| 20260504185005 | 81 | 245 | 1.0 | 10.0 | 0.00 | 0.00 | 0.00 | 55 | 1013.2 |
| 20260504184004 | 82 | 171 | 4.0 | 7.0 | 0.00 | 0.00 | 0.00 | 57 | 1013.3 |
| 20260504183504 | 80 | 174 | 1.0 | 8.0 | 0.00 | 0.00 | 0.00 | 57 | 1013.3 |
| 20260504183008 | 80 | 166 | 6.0 | 11.0 | 0.00 | 0.00 | 0.00 | 57 | 1013.3 |
| 20260504182505 | 81 | 119 | 4.0 | 11.0 | 0.00 | 0.00 | 0.00 | 56 | 1013.5 |
| 20260504182004 | 81 | 224 | 4.0 | 11.0 | 0.00 | 0.00 | 0.00 | 57 | 1013.4 |
| 20260504181503 | 80 | 196 | 4.0 | 11.0 | 0.00 | 0.00 | 0.00 | 58 | 1013.6 |
| 20260504181005 | 80 | 182 | 2.0 | 10.0 | 0.00 | 0.00 | 0.00 | 57 | 1013.7 |
| 20260504180505 | 80 | 159 | 6.0 | 11.0 | 0.00 | 0.00 | 0.00 | 57 | 1013.8 |
| 20260504175004 | 81 | 130 | 8.0 | 11.0 | 0.00 | 0.00 | 0.00 | 56 | 1013.9 |
| 20260504174506 | 80 | 360 | 2.0 | 8.0 | 0.00 | 0.00 | 0.00 | 56 | 1013.9 |
| 20260504174003 | 80 | 177 | 5.0 | 9.0 | 0.00 | 0.00 | 0.00 | 58 | 1014.0 |
| 20260504173503 | 79 | 207 | 5.0 | 8.0 | 0.00 | 0.00 | 0.00 | 58 | 1014.1 |
| 20260504172505 | 79 | 132 | 2.0 | 12.0 | 0.00 | 0.00 | 0.00 | 59 | 1014.4 |
| 20260504172004 | 79 | 169 | 4.0 | 16.0 | 0.00 | 0.00 | 0.00 | 56 | 1014.4 |
| 20260504171004 | 80 | 182 | 0.0 | 9.0 | 0.00 | 0.00 | 0.00 | 57 | 1014.5 |
| 20260504170506 | 79 | 137 | 2.0 | 11.0 | 0.00 | 0.00 | 0.00 | 59 | 1014.6 |